This demonstration page uses our WeatherBlox Daily Observations layout. Learn more.

41.55636, -103.73856

Hourly Observations for March 3, 2019

Temp ( °F °C ) Dew Point ( °F °C ) Humidity (%) Winds ( mph kmh ) Pressure ( in mb ) Visibility ( mi km ) Precip ( " mm )
12:58 am 00:58 Cloudy with Light Snow -2 -19 -7 -21.4 81 81 ENE 10 17 30.42 1030 2 3.21868 N/A
1:58 am 01:58 Cloudy with Light Snow -3 -19.5 -8 -22 81 81 ENE 10 17 30.44 1031 1.5 2.41401 N/A
2:58 am 02:58 Cloudy with Light Snow -4 -19.9 -9 -22.5 80 80 ENE 10 17 30.45 1031 5 8.0467 N/A
3:58 am 03:58 Cloudy with Light Snow -5 -20.3 -9 -22.8 81 81 E 8 13 30.46 1031 5 8.0467 N/A
4:58 am 04:58 Cloudy with Light Snow -5 -20.4 -9 -23 80 80 E 6 9 30.48 1032 1.5 2.41401 N/A
5:58 am 05:58 Mostly Cloudy with Scattered Snow Showers -5 -20.5 -10 -23.2 79 79 Calm 30.48 1032 2.5 4.02335 N/A
6:58 am 06:58 Cloudy with Light Snow -5 -20.7 -10 -23.4 79 79 ENE 3 6 30.54 1034 1 1.60934 N/A
7:58 am 07:58 Cloudy with Snow -5 -20.8 -10 -23.4 80 80 NE 3 6 30.55 1035 5 8.0467 N/A
8:58 am 08:58 Cloudy with Light Snow -5 -20.8 -10 -23.4 80 80 Calm 30.57 1035 2.25 3.621015 N/A
9:58 am 09:58 Cloudy with Light Snow -6 -21.1 -11 -23.8 79 79 Calm 30.56 1035 1 1.60934 N/A
10:58 am 10:58 Mostly Cloudy with Scattered Snow Showers -9 -22.5 -13 -25 80 80 Calm 30.58 1035 10 16.0934 N/A
11:58 am 11:58 Cloudy with Light Snow Showers -7 -21.6 -11 -24 81 81 Calm 30.59 1036 10 16.0934 N/A
12:58 pm 12:58 Mostly Cloudy with Scattered Snow Showers -8 -22.1 -12 -24.5 81 81 N 5 7 30.59 1036 10 16.0934 N/A
1:58 pm 13:58 Mostly Cloudy with Scattered Snow Showers -10 -23.5 -15 -26.3 78 78 N 5 7 30.61 1037 10 16.0934 N/A
2:58 pm 14:58 Partly Cloudy -10 -23.1 -14 -25.8 79 79 NW 7 11 30.61 1037 10 16.0934 N/A
3:58 pm 15:58 Mostly Cloudy with Haze -7 -21.8 -12 -24.3 80 80 NW 9 15 30.62 1037 4 6.43736 N/A
4:58 pm 16:58 Sunny -6 -21.2 -11 -23.8 80 80 N 9 15 30.61 1037 10 16.0934 N/A
5:58 pm 17:58 Sunny -5 -20.7 -10 -23.4 79 79 N 10 17 30.6 1036 10 16.0934 N/A
6:58 pm 18:58 Sunny -4 -19.9 -9 -22.5 80 80 NNW 8 13 30.59 1036 10 16.0934 N/A
7:58 pm 19:58 Sunny -2 -19.1 -10 -23.1 71 71 N 13 20 30.56 1035 10 16.0934 N/A
8:58 pm 20:58 Sunny -3 -19.2 -10 -23.5 69 69 NW 7 11 30.54 1034 10 16.0934 N/A
9:58 pm 21:58 Sunny -2 -18.9 -9 -22.7 72 72 NNW 9 15 30.54 1034 10 16.0934 N/A
10:58 pm 22:58 Sunny -2 -18.7 -10 -23.2 68 68 NNW 9 15 30.56 1035 10 16.0934 N/A
11:58 pm 23:58 Sunny -2 -18.9 -9 -23 70 70 NW 8 13 30.54 1034 10 16.0934 N/A

Powered by AerisWeather